Regional Weather Roundup
Issued by NWS

Home | Current Version | Previous Version | Graphics & Text | Print | Product List | Glossary On
Versions: 1 2 3 4 5 6 7 8 9 10 11 12 13 14 15 16 17 18 19 20 21 22 23 24 25 26 27 28 29 30 31 32 33 34 35 36 37 38 39 40 41 42 43 44 45 46 47 48 49 50
000
ASUS43 KOAX 271310
RWRNE

WEATHER ROUNDUP FOR NEBRASKA
NATIONAL WEATHER SERVICE OMAHA NE
800 AM CDT SAT MAY 27 2017

NOTES: SATELLITE DATA IS BEING USED TO AUGMENT CLOUD COVER ABOVE
       12000 FEET.
       "FAIR" INDICATES FEW OR NO CLOUDS BELOW 12,000 FEET WITH NO
       SIGNIFICANT WEATHER AND/OR OBSTRUCTIONS TO VISIBILITY.

  * THESE STATIONS DO NOT REPORT WEATHER SUCH AS RAIN...SNOW OR FOG.

NEZ001>004-019>022-054>056-271400-
NEBRASKA PANHANDLE

CITY           SKY/WX    TMP DP  RH WIND       PRES   REMARKS
SCOTTSBLUFF    CLOUDY    50  47  89 W6        30.04R
ALLIANCE       CLOUDY    49  47  93 N7        30.01R
CHADRON        CLOUDY    51  47  86 CALM      30.02S
GORDON         CLOUDY    50  48  94 CALM      30.00R
KIMBALL        CLOUDY    47  46  97 NW8       30.05R
SIDNEY         CLOUDY    50  48  93 N14       30.03R
$$

NEZ057>060-069>072-079>082-271400-
SOUTHWEST NEBRASKA

CITY           SKY/WX    TMP DP  RH WIND       PRES   REMARKS
NORTH PLATTE   CLOUDY    54  51  90 E6        29.94S
IMPERIAL       CLOUDY    52  50  93 N12       29.96R
LEXINGTON      CLOUDY    56  51  85 E7        29.92R
MCCOOK         MOSUNNY   58  56  93 N13       29.91R
OGALLALA       CLOUDY    54  51  92 N5        29.98R
$$

NEZ005>010-023>029-035>040-094-271400-
NORTH CENTRAL NEBRASKA

CITY           SKY/WX    TMP DP  RH WIND       PRES   REMARKS
VALENTINE      CLOUDY    54  48  80 N7        29.99R
AINSWORTH      CLOUDY    53  50  88 NE8       29.97S
BROKEN BOW     CLOUDY    56  52  86 N7        29.93F
O`NEILL        CLOUDY    56  54  91 CALM      29.96S
ORD            PTSUNNY   57  50  77 NE6       29.92S
THEDFORD       CLOUDY    55  53  95 N7        29.98S
$$

NEZ041-046>049-061>064-073>077-083>087-271400-
SOUTH CENTRAL NEBRASKA

CITY           SKY/WX    TMP DP  RH WIND       PRES   REMARKS
GRAND ISLAND   CLOUDY    58  51  78 NE16      29.91F
AURORA         CLOUDY    57  52  81 NE14      29.90F
HASTINGS       CLOUDY    58  51  78 NE9       29.90R
HEBRON         CLOUDY    59  56  89 N3        29.89R
HOLDREGE       CLOUDY    56  51  82 NE10      29.90R
KEARNEY *      CLOUDY    57  48  72 NE9       29.91R
YORK           CLOUDY    57  52  82 N12G21    29.88F
$$

NEZ011>018-030>034-042>045-271400-
NORTHEAST NEBRASKA

CITY           SKY/WX    TMP DP  RH WIND       PRES   REMARKS
NORFOLK        LGT RAIN  55  50  83 NE7       29.92F
ALBION         CLOUDY    58  50  74 NE6       29.92F
BLAIR          CLOUDY    62  48  61 NE6       29.88S
FREMONT        CLOUDY    58  49  70 NW14      29.92R
TEKAMAH        CLOUDY    59  49  69 N12       29.90R
WAYNE          CLOUDY    59  50  73 NW7       29.94S
$$

NEZ050>053-065>068-078-088>093-271400-
SOUTHEAST NEBRASKA

CITY           SKY/WX    TMP DP  RH WIND       PRES   REMARKS
LINCOLN        RAIN      57  53  86 NW8       29.95F FOG
OMAHA EPPLEY   CLOUDY    61  49  64 NW7       29.87F
BEATRICE       RAIN      57  55  93 N15       29.84F
FALLS CITY     TSTM      59  56  89 W5        29.92R FOG
NEBRASKA CITY  TSTM      58  53  85 SW29G46   29.93R
PLATTSMOUTH    CLOUDY    64  48  57 SE3       29.87S
$$

NEZ044-045-051>053-067-271400-
OMAHA AREA

CITY           SKY/WX    TMP DP  RH WIND       PRES   REMARKS
OMAHA EPPLEY   CLOUDY    61  49  64 NW7       29.87F
BLAIR          CLOUDY    62  48  61 NE6       29.88S
FREMONT        CLOUDY    58  49  70 NW14      29.92R
MILLARD        CLOUDY    65  50  59 CALM      29.87S
OFFUTT AFB     CLOUDY    63  47  55 NE5       29.86S
PLATTSMOUTH    CLOUDY    64  48  57 SE3       29.87S
WAHOO          LGT RAIN  60  50  69 W24       29.96R
$$



USA.gov is the U.S. government's official web portal to all federal, state and local government web resources and services.